| time (UTC) | temp F | wind direction | speed MPH | gust MPH | rain 1hr in | rain 24hr in | rain mn in | humidity % | barometer mb |
| 20260505124500 | 57 | 178 | 2.0 | 6.0 | 0.00 | 0.00 | 0.00 | 85 | 1011.8 |
| 20260505123113 | 57 | 200 | 2.0 | 9.0 | 0.00 | 0.00 | 0.00 | 86 | 1011.8 |
| 20260505121557 | 56 | 190 | 1.0 | 9.0 | 0.00 | 0.00 | 0.00 | 88 | 1011.6 |
| 20260505120056 | 55 | 177 | 2.0 | 9.0 | 0.00 | 0.00 | 0.00 | 89 | 1011.7 |
| 20260505114601 | 54 | 165 | 2.0 | 10.0 | 0.00 | 0.00 | 0.00 | 90 | 1011.8 |
| 20260505113053 | 54 | 197 | 1.0 | 6.0 | 0.00 | 0.00 | 0.00 | 91 | 1011.4 |
| 20260505111554 | 53 | 178 | 1.0 | 8.0 | 0.00 | 0.00 | 0.00 | 92 | 1011.3 |
| 20260505101545 | 52 | 171 | 1.0 | 4.0 | 0.00 | 0.00 | 0.00 | 92 | 1010.9 |
| 20260505100038 | 52 | 167 | 1.0 | 7.0 | 0.00 | 0.00 | 0.00 | 92 | 1010.8 |
| 20260505094537 | 52 | 173 | 0.0 | 5.0 | 0.00 | 0.00 | 0.00 | 92 | 1010.8 |
| 20260505093044 | 52 | 167 | 0.0 | 6.0 | 0.00 | 0.00 | 0.00 | 92 | 1010.9 |
| 20260505091543 | 52 | 167 | 0.0 | 6.0 | 0.00 | 0.00 | 0.00 | 91 | 1010.8 |
| 20260505090047 | 52 | 174 | 0.0 | 4.0 | 0.00 | 0.00 | 0.00 | 91 | 1010.7 |
| 20260505084534 | 52 | 174 | 0.0 | 6.0 | 0.00 | 0.00 | 0.00 | 91 | 1010.8 |
| 20260505083032 | 52 | 169 | 0.0 | 3.0 | 0.00 | 0.00 | 0.00 | 90 | 1010.9 |
| 20260505081539 | 52 | 169 | 0.0 | 6.0 | 0.00 | 0.00 | 0.00 | 90 | 1010.8 |
| 20260505080046 | 52 | 180 | 0.0 | 5.0 | 0.00 | 0.00 | 0.00 | 90 | 1010.9 |
| 20260505074531 | 52 | 186 | 1.0 | 7.0 | 0.00 | 0.00 | 0.00 | 90 | 1010.8 |
| 20260505073039 | 52 | 175 | 0.0 | 2.0 | 0.00 | 0.00 | 0.00 | 90 | 1010.9 |
| 20260505071529 | 52 | 176 | 1.0 | 7.0 | 0.00 | 0.00 | 0.00 | 90 | 1011.0 |
| 20260505070027 | 52 | 175 | 0.0 | 6.0 | 0.00 | 0.00 | 0.00 | 90 | 1011.0 |
| 20260505064525 | 52 | 198 | 1.0 | 6.0 | 0.00 | 0.00 | 0.00 | 90 | 1011.0 |
| 20260505063024 | 52 | 181 | 0.0 | 4.0 | 0.00 | 0.00 | 0.00 | 90 | 1011.1 |
| 20260505061524 | 52 | 163 | 1.0 | 5.0 | 0.00 | 0.00 | 0.00 | 90 | 1011.1 |
| 20260505060025 | 52 | 184 | 0.0 | 3.0 | 0.00 | 0.00 | 0.00 | 90 | 1011.3 |
| 20260505054523 | 52 | 193 | 0.0 | 5.0 | 0.00 | 0.00 | 0.00 | 90 | 1011.4 |
| 20260505053021 | 52 | 171 | 0.0 | 6.0 | 0.00 | 0.00 | 0.00 | 90 | 1011.4 |
| 20260505051522 | 52 | 194 | 0.0 | 4.0 | 0.00 | 0.00 | 0.00 | 89 | 1011.6 |
| 20260505041521 | 52 | 169 | 1.0 | 6.0 | 0.00 | 0.00 | 0.00 | 89 | 1012.0 |
| 20260505040011 | 52 | 197 | 1.0 | 4.0 | 0.00 | 0.00 | 0.00 | 89 | 1012.0 |
| 20260505034510 | 52 | 174 | 0.0 | 4.0 | 0.00 | 0.00 | 0.00 | 89 | 1011.9 |
| 20260505033008 | 52 | 184 | 0.0 | 3.0 | 0.00 | 0.00 | 0.00 | 89 | 1011.9 |
| 20260505031508 | 52 | 183 | 0.0 | 4.0 | 0.00 | 0.00 | 0.00 | 89 | 1011.9 |
| 20260505030008 | 52 | 161 | 0.0 | 6.0 | 0.00 | 0.00 | 0.00 | 88 | 1012.0 |
| 20260505024507 | 52 | 161 | 0.0 | 6.0 | 0.00 | 0.00 | 0.00 | 88 | 1012.0 |
| 20260505023006 | 52 | 165 | 0.0 | 5.0 | 0.00 | 0.00 | 0.00 | 88 | 1012.0 |
| 20260505021508 | 52 | 213 | 0.0 | 5.0 | 0.00 | 0.00 | 0.00 | 88 | 1012.1 |
| 20260505020006 | 52 | 247 | 0.0 | 5.0 | 0.00 | 0.00 | 0.00 | 88 | 1012.0 |
| 20260505014506 | 52 | 198 | 0.0 | 5.0 | 0.00 | 0.00 | 0.00 | 88 | 1011.9 |
| 20260505013006 | 52 | 259 | 0.0 | 6.0 | 0.00 | 0.00 | 0.00 | 89 | 1011.9 |
| 20260505011508 | 52 | 165 | 0.0 | 3.0 | 0.00 | 0.00 | 0.00 | 89 | 1011.8 |
| 20260505010004 | 52 | 167 | 1.0 | 8.0 | 0.00 | 0.00 | 0.00 | 89 | 1011.6 |
| 20260505004503 | 52 | 167 | 1.0 | 8.0 | 0.00 | 0.00 | 0.00 | 88 | 1011.4 |
| 20260505003003 | 52 | 189 | 1.0 | 7.0 | 0.00 | 0.00 | 0.00 | 88 | 1011.2 |
| 20260505001501 | 52 | 196 | 1.0 | 8.0 | 0.00 | 0.00 | 0.00 | 87 | 1010.9 |
| 20260505000002 | 52 | 175 | 2.0 | 6.0 | 0.00 | 0.00 | 0.00 | 87 | 1010.8 |
| 20260504234614 | 53 | 171 | 2.0 | 8.0 | 0.00 | 0.00 | 0.00 | 86 | 1010.7 |
| 20260504233108 | 53 | 193 | 0.0 | 5.0 | 0.00 | 0.00 | 0.00 | 85 | 1010.6 |
| 20260504231559 | 54 | 169 | 1.0 | 8.0 | 0.00 | 0.00 | 0.00 | 83 | 1010.5 |
| 20260504230059 | 54 | 168 | 0.0 | 8.0 | 0.00 | 0.00 | 0.00 | 82 | 1010.6 |
| 20260504224610 | 55 | 175 | 2.0 | 8.0 | 0.00 | 0.00 | 0.00 | 81 | 1010.6 |
| 20260504223057 | 55 | 239 | 1.0 | 4.0 | 0.00 | 0.00 | 0.00 | 80 | 1010.7 |
| 20260504221557 | 56 | 175 | 1.0 | 6.0 | 0.00 | 0.00 | 0.00 | 79 | 1010.8 |
| 20260504220059 | 56 | 194 | 2.0 | 6.0 | 0.00 | 0.00 | 0.00 | 78 | 1010.9 |
| 20260504214600 | 57 | 227 | 1.0 | 5.0 | 0.00 | 0.00 | 0.00 | 78 | 1011.0 |
| 20260504213125 | 57 | 248 | 1.0 | 6.0 | 0.00 | 0.00 | 0.00 | 78 | 1010.9 |
| 20260504211603 | 57 | 234 | 2.0 | 7.0 | 0.00 | 0.00 | 0.00 | 77 | 1010.9 |
| 20260504210055 | 58 | 208 | 1.0 | 7.0 | 0.00 | 0.00 | 0.00 | 76 | 1010.9 |
| 20260504204556 | 58 | 215 | 1.0 | 6.0 | 0.00 | 0.00 | 0.00 | 76 | 1010.9 |
| 20260504203114 | 59 | 231 | 2.0 | 10.0 | 0.00 | 0.00 | 0.00 | 74 | 1010.7 |
| 20260504201552 | 59 | 186 | 2.0 | 8.0 | 0.00 | 0.00 | 0.00 | 74 | 1010.8 |
| 20260504200053 | 59 | 197 | 2.0 | 11.0 | 0.00 | 0.00 | 0.00 | 73 | 1011.0 |
| 20260504194602 | 59 | 167 | 3.0 | 11.0 | 0.00 | 0.00 | 0.00 | 72 | 1011.0 |
| 20260504193057 | 60 | 255 | 2.0 | 8.0 | 0.00 | 0.00 | 0.00 | 72 | 1011.1 |
| 20260504191547 | 60 | 258 | 1.0 | 8.0 | 0.00 | 0.00 | 0.00 | 72 | 1011.1 |
| 20260504190058 | 60 | 147 | 1.0 | 7.0 | 0.00 | 0.00 | 0.00 | 71 | 1011.2 |
| 20260504184548 | 60 | 180 | 3.0 | 10.0 | 0.00 | 0.00 | 0.00 | 71 | 1011.4 |
| 20260504183042 | 60 | 107 | 3.0 | 11.0 | 0.00 | 0.00 | 0.00 | 71 | 1011.5 |
| 20260504181543 | 60 | 161 | 2.0 | 6.0 | 0.00 | 0.00 | 0.00 | 71 | 1011.7 |
| 20260504180039 | 60 | 175 | 2.0 | 9.0 | 0.00 | 0.00 | 0.00 | 73 | 1011.8 |
| 20260504174537 | 59 | 182 | 2.0 | 11.0 | 0.00 | 0.00 | 0.00 | 73 | 1011.9 |
| 20260504173043 | 59 | 169 | 2.0 | 9.0 | 0.00 | 0.00 | 0.00 | 74 | 1012.0 |
| 20260504171532 | 59 | 165 | 3.0 | 10.0 | 0.00 | 0.00 | 0.00 | 77 | 1012.1 |